Date,TemperatureHighF,TemperatureAvgF,TemperatureLowF,DewpointHighF,DewpointAvgF,DewpointLowF,HumidityHigh,HumidityAvg,HumidityLow,PressureMaxIn,PressureMinIn,WindSpeedMaxMPH,WindSpeedAvgMPH,GustSpeedMaxMPH,PrecipitationSumIn
2013-3-1,26,5,24,22,-77,-100,86,16,84,30.00,29.80,0,-813,0,0.00
2013-3-2,26,22,22,21,10,-100,87,75,77,29.99,29.95,0,-80,0,0.00
2013-3-3,31,20,18,18,-1,-100,86,62,54,29.97,29.90,0,-149,0,0.04
2013-3-4,35,15,15,20,-38,-100,89,34,48,30.06,29.95,0,-468,0,0.03
2013-3-5,35,6,22,25,-75,-100,91,16,65,30.02,29.72,0,-798,0,0.03
2013-3-6,-200,0,200,-100,-100,-100,0,0,100,30.05,29.73,0,-999,0,0.00
2013-3-7,-200,0,200,-100,-100,-100,0,0,100,30.24,30.04,0,-999,0,0.00
2013-3-8,29,4,20,23,-82,-100,96,13,78,30.39,30.23,0,-856,0,0.00
2013-3-9,-200,0,200,-100,-100,-100,0,0,100,29.84,29.82,0,0,0,0.00
2013-3-10,-200,0,200,-100,-100,-100,0,0,100,29.83,29.65,0,-999,0,0.00
2013-3-16,31,30,29,27,26,23,85,82,79,29.88,29.81,0,0,0,0.03
2013-3-17,34,29,22,21,18,15,76,63,51,30.17,30.08,0,0,0,0.09
2013-3-18,34,30,22,33,27,16,97,89,77,30.08,29.45,0,0,0,0.01
2013-3-19,34,26,22,31,20,15,92,77,67,29.84,29.51,0,0,0,0.00
2013-3-20,29,24,17,19,16,10,81,70,58,29.85,29.79,0,0,0,0.00
2013-3-21,31,24,15,24,18,11,89,81,67,29.85,29.77,0,0,0,0.00
2013-3-22,40,31,25,24,21,18,82,69,50,29.92,29.84,0,0,0,0.00
2013-3-23,37,29,20,26,23,18,97,77,60,30.01,29.91,0,0,0,0.00
2013-3-24,37,30,24,28,24,20,94,78,54,29.94,29.52,0,0,0,0.00
2013-3-25,41,34,30,29,27,24,83,74,59,29.81,29.45,0,0,0,0.00
2013-3-26,34,34,32,29,28,28,84,81,78,29.83,29.80,0,0,0,0.00
2013-3-31,37,37,37,29,29,29,73,73,73,29.80,29.80,0,0,0,0.00